FW8254 Weather Reports


Display with metric or nautical units.
time (UTC)temp
F
wind
direction
speed
MPH
gust
MPH
rain 1hr
in
rain 24hr
in
rain mn
in
humidity
%
barometer
mb
20260904141011 79 25 0.0 0.0 0.00 0.00 0.00 86 1011.7
20260904140511 79 16 0.0 1.0 0.00 0.00 0.00 87 1011.7
20260904140011 79 25 0.0 0.0 0.00 0.00 0.00 87 1011.6
20260904135510 79 23 0.0 1.0 0.00 0.00 0.00 88 1011.6
20260904135006 78 34 0.0 1.0 0.00 0.00 0.00 88 1011.8
20260904134501 78 31 0.0 0.0 0.00 0.00 0.00 89 1011.8
20260904133955 78 24 0.0 1.0 0.00 0.00 0.00 89 1011.6
20260904133449 78 26 1.0 1.0 0.00 0.00 0.00 89 1011.7
20260904132945 78 17 1.0 2.0 0.00 0.00 0.00 89 1011.9
20260904132440 78 22 1.0 2.0 0.00 0.00 0.00 89 1011.7
20260904131940 78 14 2.0 2.0 0.00 0.00 0.00 89 1011.8
20260904131435 78 37 0.0 0.0 0.00 0.00 0.00 90 1011.9
20260904130931 78 39 0.0 1.0 0.00 0.00 0.00 90 1011.8
20260904130430 77 13 1.0 1.0 0.00 0.00 0.00 90 1011.9
20260904125925 77 15 1.0 1.0 0.00 0.00 0.00 90 1011.8
20260904125421 77 32 1.0 1.0 0.00 0.00 0.00 90 1011.8
20260904124920 77 2 1.0 2.0 0.00 0.00 0.00 90 1011.9
20260904124417 77 8 1.0 2.0 0.00 0.00 0.00 90 1012.0
20260904123912 77 359 1.0 2.0 0.00 0.00 0.00 90 1012.0
20260904123407 77 4 1.0 2.0 0.00 0.00 0.00 90 1012.0
20260904122903 77 345 2.0 2.0 0.00 0.00 0.00 90 1011.9
20260904122402 77 3 1.0 2.0 0.00 0.00 0.00 90 1011.9
20260904121856 77 333 3.0 3.0 0.00 0.00 0.00 90 1012.0
20260904121353 77 333 2.0 2.0 0.00 0.00 0.00 90 1011.8
20260904120849 77 26 0.0 0.0 0.00 0.00 0.00 90 1012.0
20260904120345 77 6 1.0 1.0 0.00 0.00 0.00 90 1012.1
20260904115839 77 329 0.0 0.0 0.00 0.00 0.00 91 1011.9
20260904115335 76 337 0.0 0.0 0.00 0.00 0.00 91 1011.7
20260904114829 76 337 0.0 0.0 0.00 0.00 0.00 91 1011.8
20260904114324 76 342 0.0 0.0 0.00 0.00 0.00 91 1011.8
20260904113819 76 319 1.0 2.0 0.00 0.00 0.00 91 1011.7
20260904113319 76 344 0.0 0.0 0.00 0.00 0.00 91 1011.9
20260904112813 76 344 0.0 0.0 0.00 0.00 0.00 91 1011.9
20260904112309 76 344 0.0 1.0 0.00 0.00 0.00 91 1011.5
20260904111804 77 343 0.0 0.0 0.00 0.00 0.00 91 1011.6
20260904111300 76 341 0.0 1.0 0.00 0.00 0.00 91 1011.6
20260904110755 77 339 0.0 0.0 0.00 0.00 0.00 91 1011.4
20260904110254 76 346 0.0 1.0 0.00 0.00 0.00 91 1011.5
20260904105750 76 346 0.0 0.0 0.00 0.00 0.00 90 1011.6
20260904105244 76 347 0.0 0.0 0.00 0.00 0.00 90 1011.5
20260904104739 76 347 0.0 0.0 0.00 0.00 0.00 90 1011.3
20260904104235 76 347 0.0 0.0 0.00 0.00 0.00 90 1011.6
20260904103732 76 346 0.0 0.0 0.00 0.00 0.00 90 1011.1
20260904103226 76 346 0.0 0.0 0.00 0.00 0.00 90 1011.4
20260904102722 76 345 0.0 0.0 0.00 0.00 0.00 90 1011.1
20260904102218 76 344 0.0 0.0 0.00 0.00 0.00 90 1010.9
20260904101714 76 344 0.0 0.0 0.00 0.00 0.00 89 1011.0
20260904101209 76 343 0.0 0.0 0.00 0.00 0.00 89 1011.0
20260904100705 76 343 0.0 0.0 0.00 0.00 0.00 89 1011.0
20260904100201 76 343 0.0 0.0 0.00 0.00 0.00 89 1011.2
20260904095700 76 343 0.0 0.0 0.00 0.00 0.00 89 1010.8
20260904095155 76 343 0.0 0.0 0.00 0.00 0.00 89 1010.8
20260904094650 76 343 0.0 0.0 0.00 0.00 0.00 89 1010.8
20260904094145 76 343 0.0 0.0 0.00 0.00 0.00 89 1010.9
20260904093642 76 343 0.0 0.0 0.00 0.00 0.00 88 1010.8
20260904093141 77 343 0.0 0.0 0.00 0.00 0.00 88 1010.8
20260904092638 76 343 0.0 0.0 0.00 0.00 0.00 88 1010.7
20260904092133 77 343 0.0 0.0 0.00 0.00 0.00 88 1010.6
20260904091629 77 343 0.0 0.0 0.00 0.00 0.00 88 1010.6
20260904091129 77 343 0.0 0.0 0.00 0.00 0.00 88 1010.5
20260904090624 77 342 0.0 0.0 0.00 0.00 0.00 88 1010.4
20260904090121 77 342 0.0 0.0 0.00 0.00 0.00 87 1010.4
20260904085620 77 342 0.0 0.0 0.00 0.00 0.00 87 1010.4
20260904085120 77 343 0.0 0.0 0.00 0.00 0.00 87 1010.3
20260904084616 77 343 0.0 0.0 0.00 0.00 0.00 87 1010.3
20260904084112 77 344 0.0 0.0 0.00 0.00 0.00 87 1010.2
20260904083608 77 343 0.0 0.0 0.00 0.00 0.00 87 1010.1
20260904083103 77 343 0.0 0.0 0.00 0.00 0.00 87 1010.2
20260904082558 77 343 0.0 0.0 0.00 0.00 0.00 87 1010.2
20260904082054 77 343 0.0 0.0 0.00 0.00 0.00 87 1009.9
20260904081549 77 343 0.0 0.0 0.00 0.00 0.00 87 1010.0
20260904081044 77 343 0.0 0.0 0.00 0.00 0.00 86 1009.9
20260904080540 77 343 0.0 0.0 0.00 0.00 0.00 86 1010.1
20260904080036 77 343 0.0 0.0 0.00 0.00 0.00 86 1010.0
20260904075532 77 343 0.0 0.0 0.00 0.00 0.00 86 1010.1
20260904075026 77 343 0.0 0.0 0.00 0.00 0.00 86 1010.0
20260904074520 77 343 0.0 0.0 0.00 0.00 0.00 86 1009.9
20260904074020 77 343 0.0 0.0 0.00 0.00 0.00 86 1009.8
20260904073515 77 343 0.0 0.0 0.00 0.00 0.00 85 1009.8
20260904073012 77 343 0.0 0.0 0.00 0.00 0.00 85 1009.8
20260904072507 77 343 0.0 0.0 0.00 0.00 0.00 85 1010.1
20260904072002 77 343 0.0 0.0 0.00 0.00 0.00 85 1010.0
20260904071457 77 343 0.0 0.0 0.00 0.00 0.00 85 1010.3
20260904070952 78 343 0.0 0.0 0.00 0.00 0.00 85 1010.2
20260904070450 78 342 0.0 0.0 0.00 0.00 0.00 84 1010.0
20260904065945 78 342 0.0 0.0 0.00 0.00 0.00 84 1010.1
20260904065441 78 342 0.0 0.0 0.00 0.00 0.00 84 1010.2
20260904064936 78 342 0.0 0.0 0.00 0.00 0.00 84 1010.1
20260904064433 78 342 0.0 0.0 0.00 0.00 0.00 84 1010.0
20260904063928 78 342 0.0 0.0 0.00 0.00 0.00 84 1010.2
20260904063424 78 341 0.0 0.0 0.00 0.00 0.00 84 1010.2
20260904062919 78 341 0.0 0.0 0.00 0.00 0.00 83 1010.3
20260904062415 78 341 0.0 0.0 0.00 0.00 0.00 83 1010.4
20260904061911 78 341 0.0 0.0 0.00 0.00 0.00 83 1010.3
20260904061407 78 341 0.0 0.0 0.00 0.00 0.00 83 1010.6
20260904060903 78 340 0.0 0.0 0.00 0.00 0.00 82 1010.5
20260904060358 79 341 0.0 0.0 0.00 0.00 0.00 82 1010.6
20260904055854 79 341 0.0 0.0 0.00 0.00 0.00 82 1010.8
20260904055349 79 341 0.0 0.0 0.00 0.00 0.00 82 1010.6
20260904054844 79 341 0.0 0.0 0.00 0.00 0.00 82 1010.7
20260904054340 79 341 0.0 0.0 0.00 0.00 0.00 82 1010.8
20260904053836 79 335 0.0 0.0 0.00 0.00 0.00 81 1011.0
20260904053335 79 334 0.0 0.0 0.00 0.00 0.00 81 1010.9
20260904052831 79 335 0.0 0.0 0.00 0.00 0.00 81 1010.9
20260904052327 79 335 0.0 0.0 0.00 0.00 0.00 81 1011.1
20260904051823 79 334 0.0 0.0 0.00 0.00 0.00 81 1011.0
20260904051319 80 334 0.0 0.0 0.00 0.00 0.00 80 1011.1
20260904050814 80 333 0.0 0.0 0.00 0.00 0.00 80 1011.1
20260904050311 80 340 0.0 0.0 0.00 0.00 0.00 80 1011.3
20260904045810 80 340 0.0 0.0 0.00 0.00 0.00 79 1011.3
20260904045307 80 340 0.0 0.0 0.00 0.00 0.00 79 1011.1
20260904044800 80 340 0.0 0.0 0.00 0.00 0.00 79 1011.2
20260904044256 80 337 0.0 1.0 0.00 0.00 0.00 79 1011.3
20260904043746 80 335 0.0 0.0 0.00 0.00 0.00 78 1011.4
20260904043243 80 335 0.0 0.0 0.00 0.00 0.00 78 1011.3
20260904042737 80 336 0.0 0.0 0.00 0.00 0.00 78 1011.4
20260904042234 80 335 0.0 0.0 0.00 0.00 0.00 78 1011.3
20260904041733 80 335 0.0 0.0 0.00 0.00 0.00 77 1011.3
20260904041230 81 336 0.0 0.0 0.00 0.00 0.00 77 1011.4
20260904040725 81 335 0.0 0.0 0.00 0.00 0.00 76 1011.4
20260904040221 81 335 0.0 0.0 0.00 0.00 0.00 76 1011.2
20260904035717 81 335 0.0 0.0 0.00 0.00 0.00 76 1011.2
20260904035212 81 334 0.0 0.0 0.00 0.00 0.00 75 1011.5
20260904034711 81 335 0.0 0.0 0.00 0.00 0.00 75 1011.4
20260904034207 81 335 0.0 0.0 0.00 0.00 0.00 75 1011.2
20260904033703 82 335 0.0 0.0 0.00 0.00 0.00 74 1011.3
20260904033159 82 335 0.0 0.0 0.00 0.00 0.00 74 1011.3
20260904032655 82 335 0.0 0.0 0.00 0.00 0.00 74 1011.3
20260904032153 82 335 0.0 1.0 0.00 0.00 0.00 73 1011.2
20260904031648 82 330 0.0 0.0 0.00 0.00 0.00 73 1011.2
20260904031144 82 332 0.0 0.0 0.00 0.00 0.00 73 1011.5
20260904030639 82 332 0.0 0.0 0.00 0.00 0.00 72 1011.4
20260904030135 83 332 0.0 0.0 0.00 0.00 0.00 72 1011.3
20260904025630 83 332 0.0 0.0 0.00 0.00 0.00 72 1011.1
20260904025125 83 332 0.0 0.0 0.00 0.00 0.00 72 1011.5
20260904024621 83 330 0.0 0.0 0.00 0.00 0.00 71 1011.1
20260904024116 83 330 0.0 0.0 0.00 0.00 0.00 71 1011.1
20260904023612 83 330 0.0 0.0 0.00 0.00 0.00 71 1011.1
20260904023108 83 330 0.0 0.0 0.00 0.00 0.00 71 1011.3
20260904022608 83 330 0.0 0.0 0.00 0.00 0.00 71 1011.5
20260904022105 83 330 0.0 0.0 0.00 0.00 0.00 71 1011.0
20260904021600 84 329 0.0 0.0 0.00 0.00 0.00 71 1011.1
20260904021055 84 329 0.0 0.0 0.00 0.00 0.00 70 1011.1
20260904020550 84 329 0.0 0.0 0.00 0.00 0.00 70 1011.3
20260904020044 84 330 0.0 0.0 0.00 0.00 0.00 70 1010.8
20260904015539 84 330 0.0 0.0 0.00 0.00 0.00 70 1010.8
20260904015038 85 329 0.0 0.0 0.00 0.00 0.00 69 1010.9
20260904014532 85 329 0.0 0.0 0.00 0.00 0.00 69 1010.7
20260904014028 85 329 0.0 0.0 0.00 0.00 0.00 68 1010.7
20260904013524 85 330 0.0 0.0 0.00 0.00 0.00 68 1010.7
20260904013021 85 333 0.0 1.0 0.00 0.00 0.00 67 1010.7
20260904012520 85 330 0.0 0.0 0.00 0.00 0.00 67 1010.5
20260904012015 85 330 0.0 0.0 0.00 0.00 0.00 68 1010.4
20260904011514 85 330 0.0 0.0 0.00 0.00 0.00 68 1010.2
20260904011010 86 330 0.0 0.0 0.00 0.00 0.00 68 1010.4
20260904010506 86 330 0.0 0.0 0.00 0.00 0.00 68 1010.3
20260904010001 86 330 0.0 0.0 0.00 0.00 0.00 67 1010.2
20260904005456 86 330 0.0 0.0 0.00 0.00 0.00 67 1010.1
20260904004951 86 330 0.0 0.0 0.00 0.00 0.00 67 1009.9
20260904004447 86 330 0.0 0.0 0.00 0.00 0.00 66 1009.8
20260904003947 86 330 0.0 0.0 0.00 0.00 0.00 66 1009.8
20260904003443 87 330 0.0 0.0 0.00 0.00 0.00 66 1009.6
20260904002938 87 330 0.0 0.0 0.00 0.00 0.00 66 1009.5
20260904002435 87 330 0.0 0.0 0.00 0.00 0.00 65 1009.5
20260904001933 87 329 0.0 0.0 0.00 0.00 0.00 65 1009.4
20260904001429 88 328 0.0 0.0 0.00 0.00 0.00 64 1009.2
20260904000929 88 328 0.0 0.0 0.00 0.00 0.00 64 1009.1
20260904000428 88 330 0.0 0.0 0.00 0.00 0.00 64 1009.2
20260903235925 89 6 0.0 0.0 0.00 0.00 0.00 63 1008.7
20260903235420 89 36 0.0 0.0 0.00 0.00 0.00 62 1008.9
20260903234920 89 36 0.0 0.0 0.00 0.00 0.00 62 1008.9
20260903234416 90 36 0.0 0.0 0.00 0.00 0.00 61 1008.9
20260903233912 90 36 0.0 0.0 0.00 0.00 0.00 61 1009.1
20260903233408 90 36 0.0 0.0 0.00 0.00 0.00 61 1009.0
20260903232902 91 36 0.0 1.0 0.00 0.00 0.00 60 1008.9
20260903232357 91 36 0.0 0.0 0.00 0.00 0.00 59 1008.9
20260903231856 92 36 0.0 0.0 0.00 0.00 0.00 58 1009.0
20260903231351 92 36 0.0 0.0 0.00 0.00 0.00 58 1008.8
20260903230847 93 36 0.0 1.0 0.00 0.00 0.00 57 1009.0
20260903230342 93 36 0.0 1.0 0.00 0.00 0.00 57 1009.2
20260903225838 93 36 0.0 0.0 0.00 0.00 0.00 57 1009.0
20260903225334 93 36 0.0 1.0 0.00 0.00 0.00 57 1009.1
20260903224830 93 39 0.0 0.0 0.00 0.00 0.00 56 1009.0
20260903224326 93 39 0.0 0.0 0.00 0.00 0.00 56 1009.1
20260903223821 94 39 0.0 0.0 0.00 0.00 0.00 55 1009.1
20260903223320 94 39 0.0 0.0 0.00 0.00 0.00 54 1009.1
20260903222815 94 39 0.0 1.0 0.00 0.00 0.00 54 1009.1
20260903222314 94 39 0.0 0.0 0.00 0.00 0.00 54 1008.8
20260903221809 94 39 0.0 0.0 0.00 0.00 0.00 54 1008.9
20260903221308 94 39 0.0 1.0 0.00 0.00 0.00 53 1008.9
20260903220806 94 38 0.0 1.0 0.00 0.00 0.00 53 1009.0
20260903220301 94 40 1.0 1.0 0.00 0.00 0.00 52 1009.0
20260903215759 95 36 1.0 1.0 0.00 0.00 0.00 52 1009.1
20260903215256 95 39 1.0 1.0 0.00 0.00 0.00 52 1009.1
20260903214753 95 36 0.0 3.0 0.00 0.00 0.00 51 1009.0
20260903214250 95 48 1.0 1.0 0.00 0.00 0.00 51 1009.1
20260903213744 95 39 1.0 2.0 0.00 0.00 0.00 51 1009.0
20260903213240 95 35 0.0 1.0 0.00 0.00 0.00 51 1008.9
20260903212736 95 33 0.0 2.0 0.00 0.00 0.00 51 1009.1
20260903212232 95 33 0.0 0.0 0.00 0.00 0.00 52 1009.1
20260903211725 95 35 0.0 1.0 0.00 0.00 0.00 52 1009.2
20260903211222 95 37 0.0 1.0 0.00 0.00 0.00 51 1008.9
20260903210718 95 41 1.0 1.0 0.00 0.00 0.00 50 1008.9
20260903210213 95 34 0.0 1.0 0.00 0.00 0.00 52 1009.2
20260903205713 95 29 0.0 1.0 0.00 0.00 0.00 53 1009.5
20260903205212 95 25 0.0 1.0 0.00 0.00 0.00 52 1009.2
20260903204708 96 35 1.0 2.0 0.00 0.00 0.00 53 1009.3
20260903204204 96 35 0.0 1.0 0.00 0.00 0.00 52 1009.3
20260903203659 96 5 1.0 2.0 0.00 0.00 0.00 51 1009.2
20260903203154 96 34 0.0 0.0 0.00 0.00 0.00 51 1009.5
20260903202648 96 28 0.0 1.0 0.00 0.00 0.00 52 1009.6
20260903202144 96 33 0.0 1.0 0.00 0.00 0.00 52 1009.5
20260903201638 96 32 0.0 2.0 0.00 0.00 0.00 53 1009.2
20260903201137 96 35 0.0 2.0 0.00 0.00 0.00 51 1009.6
20260903200633 97 24 1.0 1.0 0.00 0.00 0.00 50 1009.8
20260903200128 98 50 0.0 1.0 0.00 0.00 0.00 50 1009.9
20260903195624 98 34 1.0 1.0 0.00 0.00 0.00 48 1010.1
20260903195120 97 34 0.0 1.0 0.00 0.00 0.00 49 1010.0
20260903194615 97 33 0.0 1.0 0.00 0.00 0.00 50 1009.8
20260903194114 97 53 1.0 2.0 0.00 0.00 0.00 50 1010.1
20260903193610 98 31 0.0 5.0 0.00 0.00 0.00 49 1009.9
20260903193106 98 29 0.0 1.0 0.00 0.00 0.00 49 1010.4
20260903192603 98 29 0.0 2.0 0.00 0.00 0.00 49 1010.1
20260903192057 98 41 0.0 2.0 0.00 0.00 0.00 50 1010.2
20260903191553 97 35 1.0 2.0 0.00 0.00 0.00 51 1010.4
20260903191048 97 31 2.0 3.0 0.00 0.00 0.00 47 1010.4
20260903190548 98 40 3.0 3.0 0.00 0.00 0.00 48 1010.3
20260903190048 97 27 1.0 3.0 0.00 0.00 0.00 49 1010.5
20260903185543 98 25 0.0 1.0 0.00 0.00 0.00 49 1010.4
20260903185038 97 34 1.0 3.0 0.00 0.00 0.00 50 1010.4
20260903184534 96 34 0.0 1.0 0.00 0.00 0.00 52 1010.4
20260903184029 95 35 0.0 2.0 0.00 0.00 0.00 52 1010.7
20260903183528 95 18 1.0 2.0 0.00 0.00 0.00 53 1010.6
20260903183024 95 36 0.0 1.0 0.00 0.00 0.00 53 1010.7
20260903182522 95 36 1.0 2.0 0.00 0.00 0.00 55 1010.9
20260903182019 95 36 0.0 1.0 0.00 0.00 0.00 55 1011.1
20260903181512 94 35 1.0 3.0 0.00 0.00 0.00 55 1011.2
20260903181011 94 50 2.0 2.0 0.00 0.00 0.00 55 1011.0
20260903180507 94 32 1.0 1.0 0.00 0.00 0.00 56 1010.9
20260903180006 94 29 1.0 1.0 0.00 0.00 0.00 56 1010.9
20260903175506 94 43 0.0 1.0 0.00 0.00 0.00 56 1011.0
20260903175004 94 37 1.0 2.0 0.00 0.00 0.00 56 1011.1
20260903174459 93 50 0.0 1.0 0.00 0.00 0.00 56 1011.2
20260903173954 93 34 1.0 3.0 0.00 0.00 0.00 56 1011.1
20260903173449 93 38 1.0 2.0 0.00 0.00 0.00 56 1011.4
20260903172945 93 25 1.0 2.0 0.00 0.00 0.00 56 1011.2
20260903172440 93 29 0.0 2.0 0.00 0.00 0.00 58 1011.3
20260903171935 93 54 1.0 3.0 0.00 0.00 0.00 56 1011.5
20260903171431 92 34 0.0 1.0 0.00 0.00 0.00 58 1011.3
20260903170930 92 16 1.0 2.0 0.00 0.00 0.00 58 1011.4
20260903170425 92 33 0.0 2.0 0.00 0.00 0.00 59 1011.5
20260903165924 92 35 1.0 2.0 0.00 0.00 0.00 59 1011.9
20260903165418 92 34 0.0 1.0 0.00 0.00 0.00 59 1011.7
20260903164913 91 53 0.0 2.0 0.00 0.00 0.00 60 1011.7
20260903164408 91 60 1.0 2.0 0.00 0.00 0.00 60 1011.8
20260903163908 91 36 1.0 2.0 0.00 0.00 0.00 61 1011.8
20260903163404 90 42 1.0 2.0 0.00 0.00 0.00 61 1011.9
20260903162900 90 27 1.0 1.0 0.00 0.00 0.00 62 1011.9
20260903162356 90 34 0.0 2.0 0.00 0.00 0.00 64 1012.2
20260903161852 89 31 0.0 2.0 0.00 0.00 0.00 64 1012.0
20260903161346 90 35 1.0 2.0 0.00 0.00 0.00 63 1011.9
20260903160843 90 33 0.0 1.0 0.00 0.00 0.00 64 1012.0
20260903160341 89 43 1.0 2.0 0.00 0.00 0.00 64 1012.1
20260903155840 89 40 1.0 1.0 0.00 0.00 0.00 65 1012.0
20260903155335 89 30 0.0 1.0 0.00 0.00 0.00 65 1012.0
20260903154831 89 34 0.0 0.0 0.00 0.00 0.00 66 1012.1
20260903154327 89 30 0.0 1.0 0.00 0.00 0.00 66 1012.0
20260903153822 88 33 0.0 1.0 0.00 0.00 0.00 67 1012.1
20260903153317 88 30 0.0 1.0 0.00 0.00 0.00 68 1012.2
20260903152814 87 20 0.0 1.0 0.00 0.00 0.00 68 1011.9
20260903152309 87 35 1.0 2.0 0.00 0.00 0.00 67 1012.3
20260903151804 87 7 1.0 2.0 0.00 0.00 0.00 67 1012.1
20260903151300 87 16 3.0 3.0 0.00 0.00 0.00 66 1012.2
20260903150759 87 17 1.0 2.0 0.00 0.00 0.00 67 1012.3
20260903150254 87 4 1.0 2.0 0.00 0.00 0.00 68 1012.2
20260903145749 86 24 0.0 1.0 0.00 0.00 0.00 68 1012.1
20260903145244 86 18 0.0 2.0 0.00 0.00 0.00 68 1012.1
20260903144743 86 18 0.0 2.0 0.00 0.00 0.00 68 1012.1
20260903144239 85 18 1.0 2.0 0.00 0.00 0.00 69 1012.1
20260903143735 85 10 1.0 2.0 0.00 0.00 0.00 69 1012.0
20260903143231 84 10 1.0 3.0 0.00 0.00 0.00 69 1012.0
20260903142726 84 13 1.0 2.0 0.00 0.00 0.00 72 1012.0
20260903142222 84 17 0.0 1.0 0.00 0.00 0.00 73 1012.1
20260903141718 84 18 0.0 2.0 0.00 0.00 0.00 73 1012.1